owner,sensor,date,latitude,longitude,vertical_datum,wind_speed,wind_to_direction,wind_speed_of_gust,qcFlag 
SCCF RECON,ioos:station:SCCF:53:1,2017-05-01T00:00:00Z,26.6493,-81.8810,2.11,3.9,120.6,-9999.0,'1111122,1111122,1111122' 
SCCF RECON,ioos:station:SCCF:53:1,2017-05-01T00:15:00Z,26.6493,-81.8810,2.11,4.4,76.4,-9999.0,'1111122,1111122,1111122' 
SCCF RECON,ioos:station:SCCF:53:1,2017-05-01T00:30:00Z,26.6493,-81.8810,2.11,4.6,112.5,-9999.0,'1111122,1111122,1111122' 
SCCF RECON,ioos:station:SCCF:53:1,2017-05-01T00:45:00Z,26.6493,-81.8810,2.11,2.3,87.6,-9999.0,'1111122,1111122,1111122' 
SCCF RECON,ioos:station:SCCF:53:1,2017-05-01T01:00:00Z,26.6493,-81.8810,2.11,5.8,86.2,-9999.0,'1111122,1111122,1111122' 
SCCF RECON,ioos:station:SCCF:53:1,2017-05-01T01:15:00Z,26.6493,-81.8810,2.11,6.9,91.8,-9999.0,'1111122,1111122,1111122' 
SCCF RECON,ioos:station:SCCF:53:1,2017-05-01T01:30:00Z,26.6493,-81.8810,2.11,3.6,119.8,-9999.0,'1111122,1111122,1111122' 
SCCF RECON,ioos:station:SCCF:53:1,2017-05-01T01:45:00Z,26.6493,-81.8810,2.11,2.9,84.4,-9999.0,'1111122,1111122,1111122' 
SCCF RECON,ioos:station:SCCF:53:1,2017-05-01T02:00:00Z,26.6493,-81.8810,2.11,4.3,81.2,-9999.0,'1111122,1111122,1111122' 
SCCF RECON,ioos:station:SCCF:53:1,2017-05-01T02:15:00Z,26.6493,-81.8810,2.11,6.1,102.0,-9999.0,'1111122,1111122,1111122' 
SCCF RECON,ioos:station:SCCF:53:1,2017-05-01T02:30:00Z,26.6493,-81.8810,2.11,5.1,91.0,-9999.0,'1111122,1111122,1111122' 
SCCF RECON,ioos:station:SCCF:53:1,2017-05-01T02:45:00Z,26.6493,-81.8810,2.11,5.0,82.4,-9999.0,'1111122,1111122,1111122' 
SCCF RECON,ioos:station:SCCF:53:1,2017-05-01T03:00:00Z,26.6493,-81.8810,2.11,4.9,83.6,-9999.0,'1111122,1111122,1111122' 
SCCF RECON,ioos:station:SCCF:53:1,2017-05-01T03:15:00Z,26.6493,-81.8810,2.11,3.7,58.6,-9999.0,'1111122,1111122,1111122' 
SCCF RECON,ioos:station:SCCF:53:1,2017-05-01T03:30:00Z,26.6493,-81.8810,2.11,5.4,95.2,-9999.0,'1111122,1111122,1111122' 
SCCF RECON,ioos:station:SCCF:53:1,2017-05-01T03:45:00Z,26.6493,-81.8810,2.11,3.3,106.7,-9999.0,'1111122,1111122,1111122' 
SCCF RECON,ioos:station:SCCF:53:1,2017-05-01T04:00:00Z,26.6493,-81.8810,2.11,4.6,80.2,-9999.0,'1111122,1111122,1111122' 
SCCF RECON,ioos:station:SCCF:53:1,2017-05-01T04:15:00Z,26.6493,-81.8810,2.11,3.3,132.5,-9999.0,'1111122,1111122,1111122' 
SCCF RECON,ioos:station:SCCF:53:1,2017-05-01T04:30:00Z,26.6493,-81.8810,2.11,3.6,85.5,-9999.0,'1111122,1111122,1111122' 
SCCF RECON,ioos:station:SCCF:53:1,2017-05-01T04:45:00Z,26.6493,-81.8810,2.11,3.7,83.5,-9999.0,'1111122,1111122,1111122' 
SCCF RECON,ioos:station:SCCF:53:1,2017-05-01T05:00:00Z,26.6493,-81.8810,2.11,3.5,102.6,-9999.0,'1111122,1111122,1111122' 
SCCF RECON,ioos:station:SCCF:53:1,2017-05-01T05:15:00Z,26.6493,-81.8810,2.11,2.1,95.9,-9999.0,'1111122,1111122,1111122' 
SCCF RECON,ioos:station:SCCF:53:1,2017-05-01T05:30:00Z,26.6493,-81.8810,2.11,2.3,156.6,-9999.0,'1111122,1111122,1111122' 
SCCF RECON,ioos:station:SCCF:53:1,2017-05-01T05:45:00Z,26.6493,-81.8810,2.11,3.4,93.0,-9999.0,'1111122,1111122,1111122' 
SCCF RECON,ioos:station:SCCF:53:1,2017-05-01T06:00:00Z,26.6493,-81.8810,2.11,2.6,139.2,-9999.0,'1111122,1111122,1111122' 
SCCF RECON,ioos:station:SCCF:53:1,2017-05-01T06:15:00Z,26.6493,-81.8810,2.11,2.0,82.9,-9999.0,'1111122,1111122,1111122' 
SCCF RECON,ioos:station:SCCF:53:1,2017-05-01T06:30:00Z,26.6493,-81.8810,2.11,3.2,83.7,-9999.0,'1111122,1111122,1111122' 
SCCF RECON,ioos:station:SCCF:53:1,2017-05-01T06:45:00Z,26.6493,-81.8810,2.11,1.7,93.2,-9999.0,'1111122,1111122,1111122' 
SCCF RECON,ioos:station:SCCF:53:1,2017-05-01T07:00:00Z,26.6493,-81.8810,2.11,2.0,116.6,-9999.0,'1111122,1111122,1111122' 
SCCF RECON,ioos:station:SCCF:53:1,2017-05-01T07:15:00Z,26.6493,-81.8810,2.11,1.3,108.7,-9999.0,'1111122,1111122,1111122' 
SCCF RECON,ioos:station:SCCF:53:1,2017-05-01T07:30:00Z,26.6493,-81.8810,2.11,2.1,99.0,-9999.0,'1111122,1111122,1111122' 
SCCF RECON,ioos:station:SCCF:53:1,2017-05-01T07:45:00Z,26.6493,-81.8810,2.11,3.2,130.5,-9999.0,'1111122,1111122,1111122' 
SCCF RECON,ioos:station:SCCF:53:1,2017-05-01T08:00:00Z,26.6493,-81.8810,2.11,2.7,88.1,-9999.0,'1111122,1111122,1111122' 
SCCF RECON,ioos:station:SCCF:53:1,2017-05-01T08:15:00Z,26.6493,-81.8810,2.11,1.9,89.3,-9999.0,'1111122,1111122,1111122' 
SCCF RECON,ioos:station:SCCF:53:1,2017-05-01T08:30:00Z,26.6493,-81.8810,2.11,2.5,88.9,-9999.0,'1111122,1111122,1111122' 
SCCF RECON,ioos:station:SCCF:53:1,2017-05-01T08:45:00Z,26.6493,-81.8810,2.11,2.2,84.3,-9999.0,'1111122,1111122,1111122' 
SCCF RECON,ioos:station:SCCF:53:1,2017-05-01T09:00:00Z,26.6493,-81.8810,2.11,1.9,107.0,-9999.0,'1111122,1111122,1111122' 
SCCF RECON,ioos:station:SCCF:53:1,2017-05-01T09:15:00Z,26.6493,-81.8810,2.11,2.4,118.3,-9999.0,'1111122,1111122,1111122' 
SCCF RECON,ioos:station:SCCF:53:1,2017-05-01T09:30:00Z,26.6493,-81.8810,2.11,2.3,125.8,-9999.0,'1111122,1111122,1111122' 
SCCF RECON,ioos:station:SCCF:53:1,2017-05-01T09:45:00Z,26.6493,-81.8810,2.11,2.4,140.3,-9999.0,'1111122,1111122,1111122' 
SCCF RECON,ioos:station:SCCF:53:1,2017-05-01T10:00:00Z,26.6493,-81.8810,2.11,4.3,126.3,-9999.0,'1111122,1111122,1111122' 
SCCF RECON,ioos:station:SCCF:53:1,2017-05-01T10:15:00Z,26.6493,-81.8810,2.11,2.0,113.4,-9999.0,'1111122,1111122,1111122' 
SCCF RECON,ioos:station:SCCF:53:1,2017-05-01T10:30:00Z,26.6493,-81.8810,2.11,3.0,124.5,-9999.0,'1111122,1111122,1111122' 
SCCF RECON,ioos:station:SCCF:53:1,2017-05-01T10:45:00Z,26.6493,-81.8810,2.11,1.8,152.6,-9999.0,'1111122,1111122,1111122' 
SCCF RECON,ioos:station:SCCF:53:1,2017-05-01T11:00:00Z,26.6493,-81.8810,2.11,2.5,117.5,-9999.0,'1111122,1111122,1111122' 
SCCF RECON,ioos:station:SCCF:53:1,2017-05-01T11:15:00Z,26.6493,-81.8810,2.11,2.9,108.1,-9999.0,'1111122,1111122,1111122' 
SCCF RECON,ioos:station:SCCF:53:1,2017-05-01T11:30:00Z,26.6493,-81.8810,2.11,3.3,126.9,-9999.0,'1111122,1111122,1111122' 
SCCF RECON,ioos:station:SCCF:53:1,2017-05-01T11:45:00Z,26.6493,-81.8810,2.11,2.6,113.8,-9999.0,'1111122,1111122,1111122' 
SCCF RECON,ioos:station:SCCF:53:1,2017-05-01T12:00:00Z,26.6493,-81.8810,2.11,5.0,125.3,-9999.0,'1111122,1111122,1111122' 
SCCF RECON,ioos:station:SCCF:53:1,2017-05-01T12:15:00Z,26.6493,-81.8810,2.11,5.2,122.0,-9999.0,'1111122,1111122,1111122' 
SCCF RECON,ioos:station:SCCF:53:1,2017-05-01T12:30:00Z,26.6493,-81.8810,2.11,5.9,145.7,-9999.0,'1111122,1111122,1111122' 
SCCF RECON,ioos:station:SCCF:53:1,2017-05-01T12:45:00Z,26.6493,-81.8810,2.11,4.4,131.9,-9999.0,'1111122,1111122,1111122' 
SCCF RECON,ioos:station:SCCF:53:1,2017-05-01T13:00:00Z,26.6493,-81.8810,2.11,5.3,148.0,-9999.0,'1111122,1111122,1111122' 
SCCF RECON,ioos:station:SCCF:53:1,2017-05-01T13:15:00Z,26.6493,-81.8810,2.11,4.2,137.0,-9999.0,'1111122,1111122,1111122' 
SCCF RECON,ioos:station:SCCF:53:1,2017-05-01T13:30:00Z,26.6493,-81.8810,2.11,5.5,133.8,-9999.0,'1111122,1111122,1111122' 
SCCF RECON,ioos:station:SCCF:53:1,2017-05-01T13:45:00Z,26.6493,-81.8810,2.11,6.1,186.3,-9999.0,'1111122,1111122,1111122' 
SCCF RECON,ioos:station:SCCF:53:1,2017-05-01T14:00:00Z,26.6493,-81.8810,2.11,6.8,139.0,-9999.0,'1111122,1111122,1111122' 
SCCF RECON,ioos:station:SCCF:53:1,2017-05-01T14:15:00Z,26.6493,-81.8810,2.11,4.4,180.8,-9999.0,'1111122,1111122,1111122' 
SCCF RECON,ioos:station:SCCF:53:1,2017-05-01T14:30:00Z,26.6493,-81.8810,2.11,5.4,145.1,-9999.0,'1111122,1111122,1111122' 
SCCF RECON,ioos:station:SCCF:53:1,2017-05-01T14:45:00Z,26.6493,-81.8810,2.11,5.9,172.8,-9999.0,'1111122,1111122,1111122' 
SCCF RECON,ioos:station:SCCF:53:1,2017-05-01T15:00:00Z,26.6493,-81.8810,2.11,6.3,158.9,-9999.0,'1111122,1111122,1111122' 
SCCF RECON,ioos:station:SCCF:53:1,2017-05-01T15:15:00Z,26.6493,-81.8810,2.11,4.3,184.9,-9999.0,'1111122,1111122,1111122' 
SCCF RECON,ioos:station:SCCF:53:1,2017-05-01T15:30:00Z,26.6493,-81.8810,2.11,4.6,167.4,-9999.0,'1111122,1111122,1111122' 
SCCF RECON,ioos:station:SCCF:53:1,2017-05-01T15:45:00Z,26.6493,-81.8810,2.11,4.6,213.4,-9999.0,'1111122,1111122,1111122' 
SCCF RECON,ioos:station:SCCF:53:1,2017-05-01T16:00:00Z,26.6493,-81.8810,2.11,7.3,203.6,-9999.0,'1111122,1111122,1111122' 
SCCF RECON,ioos:station:SCCF:53:1,2017-05-01T16:15:00Z,26.6493,-81.8810,2.11,7.3,228.3,-9999.0,'1111122,1111122,1111122' 
SCCF RECON,ioos:station:SCCF:53:1,2017-05-01T16:30:00Z,26.6493,-81.8810,2.11,4.5,228.8,-9999.0,'1111122,1111122,1111122' 
SCCF RECON,ioos:station:SCCF:53:1,2017-05-01T16:45:00Z,26.6493,-81.8810,2.11,6.5,225.2,-9999.0,'1111122,1111122,1111122' 
SCCF RECON,ioos:station:SCCF:53:1,2017-05-01T17:00:00Z,26.6493,-81.8810,2.11,7.8,214.4,-9999.0,'1111122,1111122,1111122' 
SCCF RECON,ioos:station:SCCF:53:1,2017-05-01T17:15:00Z,26.6493,-81.8810,2.11,7.1,230.2,-9999.0,'1111122,1111122,1111122' 
SCCF RECON,ioos:station:SCCF:53:1,2017-05-01T17:30:00Z,26.6493,-81.8810,2.11,6.0,228.0,-9999.0,'1111122,1111122,1111122' 
SCCF RECON,ioos:station:SCCF:53:1,2017-05-01T17:45:00Z,26.6493,-81.8810,2.11,6.0,225.7,-9999.0,'1111122,1111122,1111122' 
SCCF RECON,ioos:station:SCCF:53:1,2017-05-01T18:00:00Z,26.6493,-81.8810,2.11,6.9,215.3,-9999.0,'1111122,1111122,1111122' 
SCCF RECON,ioos:station:SCCF:53:1,2017-05-01T18:15:00Z,26.6493,-81.8810,2.11,8.0,220.9,-9999.0,'1111122,1111122,1111122' 
SCCF RECON,ioos:station:SCCF:53:1,2017-05-01T18:30:00Z,26.6493,-81.8810,2.11,8.5,224.2,-9999.0,'1111122,1111122,1111122' 
SCCF RECON,ioos:station:SCCF:53:1,2017-05-01T18:45:00Z,26.6493,-81.8810,2.11,9.6,211.8,-9999.0,'1111122,1111122,1111122' 
SCCF RECON,ioos:station:SCCF:53:1,2017-05-01T19:00:00Z,26.6493,-81.8810,2.11,8.8,210.9,-9999.0,'1111122,1111122,1111122' 
SCCF RECON,ioos:station:SCCF:53:1,2017-05-01T19:15:00Z,26.6493,-81.8810,2.11,8.9,217.2,-9999.0,'1111122,1111122,1111122' 
SCCF RECON,ioos:station:SCCF:53:1,2017-05-01T19:30:00Z,26.6493,-81.8810,2.11,7.8,225.1,-9999.0,'1111122,1111122,1111122' 
SCCF RECON,ioos:station:SCCF:53:1,2017-05-01T19:45:00Z,26.6493,-81.8810,2.11,6.3,208.0,-9999.0,'1111122,1111122,1111122' 
SCCF RECON,ioos:station:SCCF:53:1,2017-05-01T20:00:00Z,26.6493,-81.8810,2.11,8.1,209.2,-9999.0,'1111122,1111122,1111122' 
SCCF RECON,ioos:station:SCCF:53:1,2017-05-01T20:15:00Z,26.6493,-81.8810,2.11,8.1,225.7,-9999.0,'1111122,1111122,1111122' 
SCCF RECON,ioos:station:SCCF:53:1,2017-05-01T20:30:00Z,26.6493,-81.8810,2.11,6.7,211.8,-9999.0,'1111122,1111122,1111122' 
SCCF RECON,ioos:station:SCCF:53:1,2017-05-01T20:45:00Z,26.6493,-81.8810,2.11,6.8,215.5,-9999.0,'1111122,1111122,1111122' 
SCCF RECON,ioos:station:SCCF:53:1,2017-05-01T21:00:00Z,26.6493,-81.8810,2.11,8.5,216.6,-9999.0,'1111122,1111122,1111122' 
SCCF RECON,ioos:station:SCCF:53:1,2017-05-01T21:15:00Z,26.6493,-81.8810,2.11,6.7,232.8,-9999.0,'1111122,1111122,1111122' 
SCCF RECON,ioos:station:SCCF:53:1,2017-05-01T21:30:00Z,26.6493,-81.8810,2.11,7.7,218.9,-9999.0,'1111122,1111122,1111122' 
SCCF RECON,ioos:station:SCCF:53:1,2017-05-01T21:45:00Z,26.6493,-81.8810,2.11,6.0,228.5,-9999.0,'1111122,1111122,1111122' 
SCCF RECON,ioos:station:SCCF:53:1,2017-05-01T22:00:00Z,26.6493,-81.8810,2.11,5.1,215.2,-9999.0,'1111122,1111122,1111122' 
SCCF RECON,ioos:station:SCCF:53:1,2017-05-01T22:15:00Z,26.6493,-81.8810,2.11,6.7,211.6,-9999.0,'1111122,1111122,1111122' 
SCCF RECON,ioos:station:SCCF:53:1,2017-05-01T22:30:00Z,26.6493,-81.8810,2.11,6.8,212.1,-9999.0,'1111122,1111122,1111122' 
SCCF RECON,ioos:station:SCCF:53:1,2017-05-01T22:45:00Z,26.6493,-81.8810,2.11,5.9,203.4,-9999.0,'1111122,1111122,1111122' 
SCCF RECON,ioos:station:SCCF:53:1,2017-05-01T23:00:00Z,26.6493,-81.8810,2.11,4.7,194.6,-9999.0,'1111122,1111122,1111122' 
SCCF RECON,ioos:station:SCCF:53:1,2017-05-01T23:15:00Z,26.6493,-81.8810,2.11,5.6,190.3,-9999.0,'1111122,1111122,1111122' 
SCCF RECON,ioos:station:SCCF:53:1,2017-05-01T23:30:00Z,26.6493,-81.8810,2.11,4.0,197.9,-9999.0,'1111122,1111122,1111122' 
SCCF RECON,ioos:station:SCCF:53:1,2017-05-01T23:45:00Z,26.6493,-81.8810,2.11,5.0,192.0,-9999.0,'1111122,1111122,1111122' 
SCCF RECON,ioos:station:SCCF:53:1,2017-05-02T00:00:00Z,26.6493,-81.8810,2.11,4.0,172.4,-9999.0,'1111122,1111122,1111122' 
SCCF RECON,ioos:station:SCCF:53:1,2017-05-02T00:15:00Z,26.6493,-81.8810,2.11,3.4,195.6,-9999.0,'1111122,1111122,1111122' 
SCCF RECON,ioos:station:SCCF:53:1,2017-05-02T00:30:00Z,26.6493,-81.8810,2.11,4.3,187.2,-9999.0,'1111122,1111122,1111122' 
SCCF RECON,ioos:station:SCCF:53:1,2017-05-02T00:45:00Z,26.6493,-81.8810,2.11,3.4,153.8,-9999.0,'1111122,1111122,1111122' 
SCCF RECON,ioos:station:SCCF:53:1,2017-05-02T01:00:00Z,26.6493,-81.8810,2.11,2.6,132.0,-9999.0,'1111122,1111122,1111122' 
SCCF RECON,ioos:station:SCCF:53:1,2017-05-02T01:15:00Z,26.6493,-81.8810,2.11,3.1,147.5,-9999.0,'1111122,1111122,1111122' 
SCCF RECON,ioos:station:SCCF:53:1,2017-05-02T01:30:00Z,26.6493,-81.8810,2.11,4.1,164.4,-9999.0,'1111122,1111122,1111122' 
SCCF RECON,ioos:station:SCCF:53:1,2017-05-02T01:45:00Z,26.6493,-81.8810,2.11,4.7,141.7,-9999.0,'1111122,1111122,1111122' 
SCCF RECON,ioos:station:SCCF:53:1,2017-05-02T02:00:00Z,26.6493,-81.8810,2.11,3.8,157.9,-9999.0,'1111122,1111122,1111122' 
SCCF RECON,ioos:station:SCCF:53:1,2017-05-02T02:15:00Z,26.6493,-81.8810,2.11,5.2,135.0,-9999.0,'1111122,1111122,1111122' 
SCCF RECON,ioos:station:SCCF:53:1,2017-05-02T02:30:00Z,26.6493,-81.8810,2.11,4.0,156.4,-9999.0,'1111122,1111122,1111122' 
SCCF RECON,ioos:station:SCCF:53:1,2017-05-02T02:45:00Z,26.6493,-81.8810,2.11,3.5,157.5,-9999.0,'1111122,1111122,1111122' 
SCCF RECON,ioos:station:SCCF:53:1,2017-05-02T03:00:00Z,26.6493,-81.8810,2.11,2.6,159.4,-9999.0,'1111122,1111122,1111122' 
SCCF RECON,ioos:station:SCCF:53:1,2017-05-02T03:15:00Z,26.6493,-81.8810,2.11,3.5,188.0,-9999.0,'1111122,1111122,1111122' 
SCCF RECON,ioos:station:SCCF:53:1,2017-05-02T03:30:00Z,26.6493,-81.8810,2.11,4.8,137.1,-9999.0,'1111122,1111122,1111122' 
SCCF RECON,ioos:station:SCCF:53:1,2017-05-02T03:45:00Z,26.6493,-81.8810,2.11,2.3,135.7,-9999.0,'1111122,1111122,1111122' 
SCCF RECON,ioos:station:SCCF:53:1,2017-05-02T04:00:00Z,26.6493,-81.8810,2.11,4.2,143.8,-9999.0,'1111122,1111122,1111122' 
SCCF RECON,ioos:station:SCCF:53:1,2017-05-02T04:15:00Z,26.6493,-81.8810,2.11,2.7,174.7,-9999.0,'1111122,1111122,1111122' 
SCCF RECON,ioos:station:SCCF:53:1,2017-05-02T04:30:00Z,26.6493,-81.8810,2.11,2.2,178.0,-9999.0,'1111122,1111122,1111122' 
SCCF RECON,ioos:station:SCCF:53:1,2017-05-02T04:45:00Z,26.6493,-81.8810,2.11,2.6,133.6,-9999.0,'1111122,1111122,1111122' 
SCCF RECON,ioos:station:SCCF:53:1,2017-05-02T05:00:00Z,26.6493,-81.8810,2.11,1.6,140.0,-9999.0,'1111122,1111122,1111122' 
SCCF RECON,ioos:station:SCCF:53:1,2017-05-02T05:15:00Z,26.6493,-81.8810,2.11,1.6,118.4,-9999.0,'1111122,1111122,1111122' 
SCCF RECON,ioos:station:SCCF:53:1,2017-05-02T05:30:00Z,26.6493,-81.8810,2.11,2.2,161.6,-9999.0,'1111122,1111122,1111122' 
SCCF RECON,ioos:station:SCCF:53:1,2017-05-02T05:45:00Z,26.6493,-81.8810,2.11,1.7,123.8,-9999.0,'1111122,1111122,1111122' 
SCCF RECON,ioos:station:SCCF:53:1,2017-05-02T06:00:00Z,26.6493,-81.8810,2.11,2.3,132.6,-9999.0,'1111122,1111122,1111122' 
SCCF RECON,ioos:station:SCCF:53:1,2017-05-02T06:15:00Z,26.6493,-81.8810,2.11,2.4,144.9,-9999.0,'1111122,1111122,1111122' 
SCCF RECON,ioos:station:SCCF:53:1,2017-05-02T06:30:00Z,26.6493,-81.8810,2.11,1.9,164.3,-9999.0,'1111122,1111122,1111122' 
SCCF RECON,ioos:station:SCCF:53:1,2017-05-02T06:45:00Z,26.6493,-81.8810,2.11,3.8,115.9,-9999.0,'1111122,1111122,1111122' 
SCCF RECON,ioos:station:SCCF:53:1,2017-05-02T07:00:00Z,26.6493,-81.8810,2.11,3.1,111.4,-9999.0,'1111122,1111122,1111122' 
SCCF RECON,ioos:station:SCCF:53:1,2017-05-02T07:15:00Z,26.6493,-81.8810,2.11,1.8,157.4,-9999.0,'1111122,1111122,1111122' 
SCCF RECON,ioos:station:SCCF:53:1,2017-05-02T07:30:00Z,26.6493,-81.8810,2.11,3.1,173.1,-9999.0,'1111122,1111122,1111122' 
SCCF RECON,ioos:station:SCCF:53:1,2017-05-02T07:45:00Z,26.6493,-81.8810,2.11,4.5,209.6,-9999.0,'1111122,1111122,1111122' 
SCCF RECON,ioos:station:SCCF:53:1,2017-05-02T08:00:00Z,26.6493,-81.8810,2.11,2.6,180.2,-9999.0,'1111122,1111122,1111122' 
SCCF RECON,ioos:station:SCCF:53:1,2017-05-02T08:15:00Z,26.6493,-81.8810,2.11,2.1,144.9,-9999.0,'1111122,1111122,1111122' 
SCCF RECON,ioos:station:SCCF:53:1,2017-05-02T08:30:00Z,26.6493,-81.8810,2.11,2.1,137.3,-9999.0,'1111122,1111122,1111122' 
SCCF RECON,ioos:station:SCCF:53:1,2017-05-02T08:45:00Z,26.6493,-81.8810,2.11,1.9,138.7,-9999.0,'1111122,1111122,1111122' 
SCCF RECON,ioos:station:SCCF:53:1,2017-05-02T09:00:00Z,26.6493,-81.8810,2.11,2.2,206.0,-9999.0,'1111122,1111122,1111122' 
SCCF RECON,ioos:station:SCCF:53:1,2017-05-02T09:15:00Z,26.6493,-81.8810,2.11,2.6,174.3,-9999.0,'1111122,1111122,1111122' 
SCCF RECON,ioos:station:SCCF:53:1,2017-05-02T09:30:00Z,26.6493,-81.8810,2.11,3.7,168.5,-9999.0,'1111122,1111122,1111122' 
SCCF RECON,ioos:station:SCCF:53:1,2017-05-02T09:45:00Z,26.6493,-81.8810,2.11,1.9,207.7,-9999.0,'1111122,1111122,1111122' 
SCCF RECON,ioos:station:SCCF:53:1,2017-05-02T10:00:00Z,26.6493,-81.8810,2.11,1.5,168.5,-9999.0,'1111122,1111122,1111122' 
SCCF RECON,ioos:station:SCCF:53:1,2017-05-02T10:15:00Z,26.6493,-81.8810,2.11,3.1,168.0,-9999.0,'1111122,1111122,1111122' 
SCCF RECON,ioos:station:SCCF:53:1,2017-05-02T10:30:00Z,26.6493,-81.8810,2.11,2.4,178.4,-9999.0,'1111122,1111122,1111122' 
SCCF RECON,ioos:station:SCCF:53:1,2017-05-02T10:45:00Z,26.6493,-81.8810,2.11,4.0,225.7,-9999.0,'1111122,1111122,1111122' 
SCCF RECON,ioos:station:SCCF:53:1,2017-05-02T11:00:00Z,26.6493,-81.8810,2.11,4.4,270.6,-9999.0,'1111122,1111122,1111122' 
SCCF RECON,ioos:station:SCCF:53:1,2017-05-02T11:15:00Z,26.6493,-81.8810,2.11,1.4,241.1,-9999.0,'1111122,1111122,1111122' 
SCCF RECON,ioos:station:SCCF:53:1,2017-05-02T11:30:00Z,26.6493,-81.8810,2.11,2.8,167.9,-9999.0,'1111122,1111122,1111122' 
SCCF RECON,ioos:station:SCCF:53:1,2017-05-02T11:45:00Z,26.6493,-81.8810,2.11,3.7,163.0,-9999.0,'1111122,1111122,1111122' 
SCCF RECON,ioos:station:SCCF:53:1,2017-05-02T12:00:00Z,26.6493,-81.8810,2.11,1.0,138.3,-9999.0,'1111122,1111122,1111122' 
SCCF RECON,ioos:station:SCCF:53:1,2017-05-02T12:15:00Z,26.6493,-81.8810,2.11,1.4,162.5,-9999.0,'1111122,1111122,1111122' 
SCCF RECON,ioos:station:SCCF:53:1,2017-05-02T12:30:00Z,26.6493,-81.8810,2.11,1.0,192.0,-9999.0,'1111122,1111122,1111122' 
SCCF RECON,ioos:station:SCCF:53:1,2017-05-02T12:45:00Z,26.6493,-81.8810,2.11,1.9,220.5,-9999.0,'1111122,1111122,1111122' 
SCCF RECON,ioos:station:SCCF:53:1,2017-05-02T13:00:00Z,26.6493,-81.8810,2.11,1.9,229.6,-9999.0,'1111122,1111122,1111122' 
SCCF RECON,ioos:station:SCCF:53:1,2017-05-02T13:15:00Z,26.6493,-81.8810,2.11,2.2,208.2,-9999.0,'1111122,1111122,1111122' 
SCCF RECON,ioos:station:SCCF:53:1,2017-05-02T13:30:00Z,26.6493,-81.8810,2.11,2.4,232.4,-9999.0,'1111122,1111122,1111122' 
SCCF RECON,ioos:station:SCCF:53:1,2017-05-02T13:45:00Z,26.6493,-81.8810,2.11,4.3,222.3,-9999.0,'1111122,1111122,1111122' 
SCCF RECON,ioos:station:SCCF:53:1,2017-05-02T14:00:00Z,26.6493,-81.8810,2.11,3.6,224.0,-9999.0,'1111122,1111122,1111122' 
SCCF RECON,ioos:station:SCCF:53:1,2017-05-02T14:15:00Z,26.6493,-81.8810,2.11,2.0,243.2,-9999.0,'1111122,1111122,1111122' 
SCCF RECON,ioos:station:SCCF:53:1,2017-05-02T14:30:00Z,26.6493,-81.8810,2.11,4.6,228.9,-9999.0,'1111122,1111122,1111122' 
SCCF RECON,ioos:station:SCCF:53:1,2017-05-02T14:45:00Z,26.6493,-81.8810,2.11,3.1,231.9,-9999.0,'1111122,1111122,1111122' 
SCCF RECON,ioos:station:SCCF:53:1,2017-05-02T15:00:00Z,26.6493,-81.8810,2.11,4.2,221.2,-9999.0,'1111122,1111122,1111122' 
SCCF RECON,ioos:station:SCCF:53:1,2017-05-02T15:15:00Z,26.6493,-81.8810,2.11,4.4,217.2,-9999.0,'1111122,1111122,1111122' 
SCCF RECON,ioos:station:SCCF:53:1,2017-05-02T15:30:00Z,26.6493,-81.8810,2.11,4.6,217.0,-9999.0,'1111122,1111122,1111122' 
SCCF RECON,ioos:station:SCCF:53:1,2017-05-02T15:45:00Z,26.6493,-81.8810,2.11,5.2,211.1,-9999.0,'1111122,1111122,1111122' 
SCCF RECON,ioos:station:SCCF:53:1,2017-05-02T16:00:00Z,26.6493,-81.8810,2.11,5.4,212.4,-9999.0,'1111122,1111122,1111122' 
SCCF RECON,ioos:station:SCCF:53:1,2017-05-02T16:15:00Z,26.6493,-81.8810,2.11,5.1,208.1,-9999.0,'1111122,1111122,1111122' 
SCCF RECON,ioos:station:SCCF:53:1,2017-05-02T16:30:00Z,26.6493,-81.8810,2.11,5.7,213.1,-9999.0,'1111122,1111122,1111122' 
SCCF RECON,ioos:station:SCCF:53:1,2017-05-02T16:45:00Z,26.6493,-81.8810,2.11,5.8,213.5,-9999.0,'1111122,1111122,1111122' 
SCCF RECON,ioos:station:SCCF:53:1,2017-05-02T17:00:00Z,26.6493,-81.8810,2.11,6.2,205.0,-9999.0,'1111122,1111122,1111122' 
SCCF RECON,ioos:station:SCCF:53:1,2017-05-02T17:15:00Z,26.6493,-81.8810,2.11,5.5,203.3,-9999.0,'1111122,1111122,1111122' 
SCCF RECON,ioos:station:SCCF:53:1,2017-05-02T17:30:00Z,26.6493,-81.8810,2.11,6.4,216.2,-9999.0,'1111122,1111122,1111122' 
SCCF RECON,ioos:station:SCCF:53:1,2017-05-02T17:45:00Z,26.6493,-81.8810,2.11,6.8,206.2,-9999.0,'1111122,1111122,1111122' 
SCCF RECON,ioos:station:SCCF:53:1,2017-05-02T18:00:00Z,26.6493,-81.8810,2.11,3.6,240.9,-9999.0,'1111122,1111122,1111122' 
SCCF RECON,ioos:station:SCCF:53:1,2017-05-02T18:15:00Z,26.6493,-81.8810,2.11,2.9,245.2,-9999.0,'1111122,1111122,1111122' 
SCCF RECON,ioos:station:SCCF:53:1,2017-05-02T18:30:00Z,26.6493,-81.8810,2.11,5.5,276.6,-9999.0,'1111122,1111122,1111122' 
SCCF RECON,ioos:station:SCCF:53:1,2017-05-02T18:45:00Z,26.6493,-81.8810,2.11,4.3,270.9,-9999.0,'1111122,1111122,1111122' 
SCCF RECON,ioos:station:SCCF:53:1,2017-05-02T19:00:00Z,26.6493,-81.8810,2.11,4.5,264.3,-9999.0,'1111122,1111122,1111122' 
SCCF RECON,ioos:station:SCCF:53:1,2017-05-02T19:15:00Z,26.6493,-81.8810,2.11,5.4,284.6,-9999.0,'1111122,1111122,1111122' 
SCCF RECON,ioos:station:SCCF:53:1,2017-05-02T19:30:00Z,26.6493,-81.8810,2.11,5.5,255.8,-9999.0,'1111122,1111122,1111122' 
SCCF RECON,ioos:station:SCCF:53:1,2017-05-02T19:45:00Z,26.6493,-81.8810,2.11,4.5,273.7,-9999.0,'1111122,1111122,1111122' 
SCCF RECON,ioos:station:SCCF:53:1,2017-05-02T20:00:00Z,26.6493,-81.8810,2.11,2.5,253.5,-9999.0,'1111122,1111122,1111122' 
SCCF RECON,ioos:station:SCCF:53:1,2017-05-02T20:15:00Z,26.6493,-81.8810,2.11,4.7,264.8,-9999.0,'1111122,1111122,1111122' 
SCCF RECON,ioos:station:SCCF:53:1,2017-05-02T20:30:00Z,26.6493,-81.8810,2.11,6.2,273.2,-9999.0,'1111122,1111122,1111122' 
SCCF RECON,ioos:station:SCCF:53:1,2017-05-02T20:45:00Z,26.6493,-81.8810,2.11,5.9,272.4,-9999.0,'1111122,1111122,1111122' 
SCCF RECON,ioos:station:SCCF:53:1,2017-05-02T21:00:00Z,26.6493,-81.8810,2.11,3.7,252.2,-9999.0,'1111122,1111122,1111122' 
SCCF RECON,ioos:station:SCCF:53:1,2017-05-02T21:15:00Z,26.6493,-81.8810,2.11,2.9,244.6,-9999.0,'1111122,1111122,1111122' 
SCCF RECON,ioos:station:SCCF:53:1,2017-05-02T21:30:00Z,26.6493,-81.8810,2.11,4.3,269.4,-9999.0,'1111122,1111122,1111122' 
SCCF RECON,ioos:station:SCCF:53:1,2017-05-02T21:45:00Z,26.6493,-81.8810,2.11,4.0,294.6,-9999.0,'1111122,1111122,1111122' 
SCCF RECON,ioos:station:SCCF:53:1,2017-05-02T22:00:00Z,26.6493,-81.8810,2.11,5.4,270.5,-9999.0,'1111122,1111122,1111122' 
SCCF RECON,ioos:station:SCCF:53:1,2017-05-02T22:15:00Z,26.6493,-81.8810,2.11,4.8,284.5,-9999.0,'1111122,1111122,1111122' 
SCCF RECON,ioos:station:SCCF:53:1,2017-05-02T22:30:00Z,26.6493,-81.8810,2.11,6.0,303.1,-9999.0,'1111122,1111122,1111122' 
SCCF RECON,ioos:station:SCCF:53:1,2017-05-02T22:45:00Z,26.6493,-81.8810,2.11,4.9,305.8,-9999.0,'1111122,1111122,1111122' 
SCCF RECON,ioos:station:SCCF:53:1,2017-05-02T23:00:00Z,26.6493,-81.8810,2.11,3.4,299.3,-9999.0,'1111122,1111122,1111122' 
SCCF RECON,ioos:station:SCCF:53:1,2017-05-02T23:15:00Z,26.6493,-81.8810,2.11,2.9,279.5,-9999.0,'1111122,1111122,1111122' 
SCCF RECON,ioos:station:SCCF:53:1,2017-05-02T23:30:00Z,26.6493,-81.8810,2.11,3.7,269.4,-9999.0,'1111122,1111122,1111122' 
SCCF RECON,ioos:station:SCCF:53:1,2017-05-02T23:45:00Z,26.6493,-81.8810,2.11,2.8,288.7,-9999.0,'1111122,1111122,1111122' 
SCCF RECON,ioos:station:SCCF:53:1,2017-05-03T00:00:00Z,26.6493,-81.8810,2.11,0.8,327.6,-9999.0,'1111122,1111122,1111122' 
SCCF RECON,ioos:station:SCCF:53:1,2017-05-03T00:15:00Z,26.6493,-81.8810,2.11,6.1,143.3,-9999.0,'1111122,1111122,1111122' 
SCCF RECON,ioos:station:SCCF:53:1,2017-05-03T00:30:00Z,26.6493,-81.8810,2.11,5.3,100.3,-9999.0,'1111122,1111122,1111122' 
SCCF RECON,ioos:station:SCCF:53:1,2017-05-03T00:45:00Z,26.6493,-81.8810,2.11,2.8,108.9,-9999.0,'1111122,1111122,1111122' 